Vertical_Velocity
6 -1 -7 16 1 11 8 -0 4 3 4 4 -0 -2 4 1 2 1 -0 1 4 -2 0 -1 -0 -3 -0 -1 -2 -1 -2 -3 0 1 -2 0 -1 -1 -1 -0 -0 -1 0
-7 3 -6 7 3 2 6 3 1 2 3 9 10 3 -0 1 0 2 5 5 1 4 -0 -0 2 -1 0 2 -1 -2 -1 0 0 -0 -0 -2 1 -1 -1 -3 1 0 2
5 3 7 -2 4 -2 2 8 6 1 1 3 7 4 6 1 0 1 2 -0 3 -0 1 -1 0 2 0 2 -1 1 -2 -0 -0 2 -0 -1 -0 5 5 1 4 1 1
2 -0 2 1 4 -3 -2 1 6 4 3 4 3 3 10 10 4 -1 0 -3 1 1 5 -0 3 -2 -2 0 1 2 2 -0 -1 1 0 0 -0 6 6 -1 -0 -3 -0
3 4 3 -0 4 2 1 -4 -1 1 2 3 0 -0 3 6 11 8 4 -0 -0 -1 -3 0 1 1 -2 -0 1 -1 6 -2 -1 -2 1 -1 -1 5 5 1 -2 -1 -2
1 0 -1 2 2 -1 1 -0 -3 -0 -1 -3 -3 -3 -1 2 2 8 9 6 2 2 1 1 -0 -0 -0 0 0 -1 -1 -1 -2 -1 -0 -1 7 8 4 0 1 -0 -2
-1 1 5 1 -2 2 0 -0 1 -0 0 -0 2 -2 -3 -0 -0 -1 3 6 6 5 2 0 -1 -0 2 -0 -1 3 0 -2 -4 -2 -2 -1 1 6 2 -1 0 -1 -1
-2 1 2 -1 -2 -5 -5 2 0 -1 1 1 0 -0 1 -0 -2 -0 1 -1 1 9 6 4 2 0 0 -0 1 3 3 -0 -2 -4 0 -2 -1 3 -1 -2 -1 -2 -0
5 5 -0 -1 1 1 -1 -0 1 0 1 2 -1 -1 0 2 1 -2 1 2 0 1 6 4 3 4 1 0 0 0 4 2 -3 -1 -1 -3 4 5 -1 0 -3 -0 -1
-3 -3 -4 -2 -4 -4 -3 -2 -1 -1 0 1 2 1 -0 -1 -2 -1 -2 -3 3 -1 -1 5 3 5 3 2 0 -1 2 4 2 -3 -2 -3 5 2 -2 0 -1 -1 -2
4 -0 -1 -2 -2 -2 -1 -1 -0 0 1 1 1 2 3 1 -0 -2 0 0 -1 0 -0 -1 1 3 6 2 1 4 3 2 0 4 0 -2 -0 2 7 1 -1 -2 -1
-4 -3 -1 1 -1 1 1 1 -1 -0 -2 -2 -0 1 -0 -3 2 -2 1 -1 1 3 2 3 -0 0 6 5 1 8 -2 3 0 3 1 1 -2 1 12 -0 -1 -1 -0
-4 -3 -4 -4 -1 -4 -4 -5 -4 -4 -2 0 -0 -2 2 1 -0 -0 1 -1 -0 0 0 1 -1 1 -0 4 0 2 -1 -1 -0 -2 -1 1 4 2 12 -1 1 1 -1
-5 -3 -3 -4 -5 -0 -4 -4 -2 -4 -4 -3 -3 -4 -5 2 2 -2 -1 1 -1 -0 -1 1 1 2 -1 2 4 3 1 1 -0 2 -3 -2 3 2 9 0 0 2 2
-2 0 -4 -6 -4 -3 -2 -2 -5 -3 -2 -3 0 -2 -3 -2 -1 2 0 0 1 2 -1 -3 -2 -3 -1 -1 4 6 2 1 0 -0 2 -2 -3 4 7 6 -1 -0 1
-1 -4 -3 -3 -4 -6 -2 1 -3 -3 -4 -2 -0 1 -1 -3 -3 -1 1 -1 -0 1 1 -4 -3 4 2 -3 -2 1 -1 0 2 3 3 -2 -0 -1 3 28 7 -2 -1
-5 -4 -3 -2 -3 -4 -6 -4 -1 -3 -0 -3 -3 -1 3 0 -4 -3 -1 1 -3 -1 0 -2 -4 -5 -2 6 2 4 3 2 -4 4 -0 2 -1 -1 1 2 -1 2 1
2 -0 -5 -7 -4 -3 -3 -3 -5 -1 -1 -2 -3 -2 -2 2 0 -4 -2 -0 -0 -2 -1 -0 1 10 5 23 -6 -5 3 7 2 2 4 -1 -1 1 -1 -2 10 0 10
-2 -7 -5 -5 -6 -7 -3 -6 -4 -2 -2 -2 -2 -3 -2 -1 3 -2 -3 -1 -0 -2 -2 -2 4 13 -6 4 5 -12 -3 -1 2 3 2 -1 -2 1 -1 -2 -3 10 -4
-4 -3 -4 -5 -2 -3 -4 -4 -1 -3 -1 -1 -1 -2 -0 -2 -1 -0 -2 -2 -1 -1 -2 -2 -7 -1 -0 -1 31 5 -3 4 4 1 4 2 -3 1 -1 -3 4 14 4
3 2 -1 -1 -2 -6 -9 -11 -6 -5 -5 -3 -2 -1 -0 -1 1 0 -2 -1 -1 -1 0 -2 -2 -5 -6 2 3 34 8 -6 -9 8 4 4 -1 1 -1 -2 -1 1 5
-5 -5 -5 -2 -2 -3 -2 -3 -1 -7 -2 -4 -4 -2 -0 -0 -1 -1 -0 -4 1 -4 1 0 -1 -2 -2 -2 -4 24 -0 11 9 -2 11 0 4 1 -1 2 -6 1 4
-4 -4 -4 -3 -4 -2 -1 -4 -4 -1 2 -2 -1 -3 -2 -2 -1 0 1 -1 -2 0 -1 -0 -1 -0 -4 5 1 0 15 -4 5 -8 -19 5 4 -1 3 -2 -7 0 2
-3 -3 -1 -1 -3 -3 -1 -2 -3 -2 -7 -1 -2 -4 -4 -1 -1 -1 -1 1 -2 0 -0 -1 0 -1 0 -6 -6 3 12 21 -1 5 6 -9 8 2 2 -1 -0 -3 1
-3 -1 -1 -3 -3 -1 -0 2 1 -3 -2 -4 -1 1 -3 -2 -0 -1 0 -1 -0 1 -1 2 -1 1 -2 5 -14 4 2 -3 12 14 1 -3 4 14 4 -1 -4 -3 2
1 -1 -2 -1 -4 -3 -1 -1 1 1 -2 -5 -5 -1 2 -4 -4 0 -2 -1 -1 0 -1 -0 0 2 -2 -3 -4 2 6 -1 17 16 8 5 -12 -12 -2 1 1 -2 -0
Height
1545 1542 1537 1538 1537 1537 1535 1534 1536 1537 1537 1537 1535 1535 1535 1534 1535 1535 1534 1535 1535 1537 1536 1537 1537 1538 1538 1539 1539 1540 1541 1541 1541 1541 1541 1542 1541 1542 1543 1543 1544 1544 1544
1549 1545 1540 1539 1538 1536 1535 1535 1535 1534 1537 1538 1536 1536 1535 1534 1535 1535 1536 1536 1535 1535 1535 1537 1537 1537 1538 1538 1539 1540 1541 1541 1542 1542 1542 1542 1542 1543 1543 1544 1545 1545 1545
1551 1545 1541 1539 1539 1537 1535 1534 1536 1535 1534 1534 1537 1535 1535 1535 1535 1534 1535 1536 1536 1536 1535 1536 1536 1536 1538 1538 1539 1539 1541 1542 1542 1542 1542 1543 1543 1543 1544 1545 1546 1546 1546
1550 1546 1542 1540 1538 1537 1536 1535 1533 1533 1534 1534 1532 1534 1535 1535 1534 1534 1534 1536 1536 1536 1536 1536 1536 1535 1536 1538 1538 1539 1540 1541 1542 1542 1542 1543 1544 1544 1544 1545 1546 1546 1546
1552 1548 1543 1541 1540 1536 1534 1533 1532 1532 1531 1531 1532 1531 1533 1532 1532 1532 1533 1534 1535 1535 1536 1535 1535 1534 1535 1536 1537 1538 1539 1540 1541 1541 1542 1543 1544 1544 1545 1546 1546 1546 1546
1551 1546 1543 1541 1540 1538 1535 1532 1532 1530 1530 1530 1529 1531 1532 1531 1531 1531 1531 1532 1533 1533 1534 1534 1534 1534 1534 1535 1535 1536 1538 1539 1540 1541 1542 1543 1545 1545 1546 1546 1547 1546 1547
1551 1547 1545 1542 1539 1537 1534 1533 1531 1530 1529 1528 1528 1528 1529 1529 1530 1530 1530 1530 1531 1532 1532 1532 1532 1532 1532 1532 1533 1534 1535 1537 1538 1540 1541 1542 1544 1545 1546 1547 1546 1546 1546
1549 1546 1543 1540 1537 1536 1536 1533 1530 1529 1528 1528 1527 1526 1526 1526 1527 1528 1528 1528 1528 1529 1529 1529 1530 1530 1530 1531 1531 1532 1533 1534 1536 1538 1539 1541 1543 1543 1544 1546 1546 1546 1546
1549 1546 1543 1541 1538 1536 1534 1532 1530 1529 1527 1526 1524 1524 1524 1523 1523 1524 1524 1525 1526 1526 1526 1527 1527 1528 1528 1529 1529 1530 1532 1532 1534 1536 1537 1539 1541 1542 1543 1544 1545 1546 1546
1551 1547 1543 1541 1538 1536 1533 1531 1529 1527 1525 1524 1523 1521 1521 1520 1519 1520 1520 1520 1521 1521 1523 1523 1524 1525 1525 1526 1527 1528 1530 1531 1532 1534 1535 1537 1538 1540 1541 1543 1544 1545 1545
1549 1546 1544 1541 1539 1537 1534 1530 1528 1525 1523 1521 1520 1518 1517 1516 1516 1517 1517 1515 1515 1517 1518 1519 1521 1522 1523 1524 1525 1526 1528 1529 1530 1532 1533 1535 1537 1538 1539 1541 1542 1543 1544
1546 1544 1542 1539 1536 1533 1530 1528 1525 1523 1520 1518 1516 1514 1513 1512 1512 1512 1512 1512 1511 1511 1512 1513 1515 1518 1520 1520 1521 1523 1525 1527 1528 1530 1531 1533 1534 1536 1537 1538 1540 1541 1542
1550 1547 1543 1540 1537 1532 1528 1526 1524 1522 1519 1516 1513 1511 1509 1508 1507 1507 1506 1506 1506 1506 1506 1507 1509 1512 1514 1515 1517 1519 1521 1524 1525 1527 1528 1530 1531 1533 1534 1535 1538 1539 1540
1551 1548 1545 1542 1538 1534 1530 1527 1524 1521 1519 1516 1512 1509 1506 1504 1503 1502 1502 1501 1500 1500 1501 1502 1504 1506 1508 1511 1513 1515 1516 1519 1522 1523 1525 1527 1528 1529 1530 1531 1535 1537 1538
1551 1547 1544 1541 1539 1535 1531 1527 1524 1521 1517 1514 1511 1508 1504 1501 1498 1496 1496 1495 1494 1493 1494 1496 1498 1499 1502 1504 1507 1509 1511 1514 1516 1519 1520 1522 1525 1526 1527 1528 1530 1533 1536
1552 1549 1545 1540 1538 1536 1532 1528 1523 1521 1517 1512 1508 1505 1502 1498 1495 1492 1490 1489 1488 1488 1488 1489 1490 1491 1492 1496 1499 1503 1505 1508 1511 1513 1516 1517 1520 1522 1524 1523 1525 1529 1532
1553 1550 1545 1540 1536 1535 1531 1527 1523 1520 1515 1511 1507 1504 1500 1496 1491 1488 1486 1484 1482 1483 1482 1482 1484 1485 1485 1484 1490 1495 1499 1502 1505 1507 1510 1513 1515 1518 1520 1521 1521 1524 1528
1553 1548 1544 1540 1537 1532 1527 1524 1521 1517 1513 1508 1505 1501 1497 1493 1488 1485 1483 1480 1478 1477 1478 1477 1476 1476 1476 1475 1477 1485 1491 1495 1498 1501 1503 1507 1510 1513 1515 1517 1517 1518 1523
1549 1549 1542 1539 1533 1529 1524 1521 1518 1514 1509 1504 1501 1498 1494 1490 1485 1481 1480 1477 1474 1472 1471 1471 1470 1468 1469 1469 1476 1477 1482 1486 1489 1494 1496 1500 1504 1508 1510 1513 1515 1516 1519
1549 1544 1540 1536 1531 1526 1521 1517 1514 1508 1505 1501 1496 1494 1490 1487 1482 1477 1476 1474 1471 1469 1466 1465 1465 1463 1464 1466 1465 1472 1474 1476 1484 1487 1491 1494 1498 1502 1506 1509 1511 1512 1513
1543 1539 1535 1531 1527 1523 1518 1514 1509 1503 1498 1496 1492 1489 1485 1482 1478 1474 1471 1470 1467 1465 1462 1461 1460 1459 1459 1461 1462 1460 1462 1469 1474 1480 1484 1488 1491 1495 1500 1503 1505 1507 1511
1542 1538 1534 1530 1525 1521 1517 1513 1508 1502 1496 1491 1488 1485 1481 1477 1474 1470 1467 1465 1463 1460 1458 1456 1455 1453 1454 1456 1457 1457 1456 1459 1462 1467 1476 1481 1484 1489 1492 1496 1499 1501 1505
1540 1536 1531 1528 1523 1519 1514 1509 1504 1499 1494 1487 1483 1479 1476 1472 1469 1466 1464 1461 1459 1456 1454 1452 1450 1449 1447 1449 1449 1449 1447 1446 1451 1459 1465 1473 1478 1481 1485 1489 1492 1495 1498
1537 1534 1530 1525 1521 1516 1511 1506 1501 1495 1489 1485 1479 1474 1472 1468 1465 1462 1460 1457 1455 1452 1449 1447 1446 1445 1444 1442 1441 1443 1439 1442 1442 1451 1456 1460 1469 1474 1478 1481 1485 1489 1492
1535 1530 1526 1522 1517 1511 1506 1502 1497 1492 1487 1481 1476 1470 1467 1464 1461 1458 1455 1451 1450 1448 1444 1442 1441 1441 1440 1439 1436 1435 1434 1436 1436 1437 1442 1449 1458 1465 1471 1474 1478 1481 1485
1531 1526 1521 1516 1510 1506 1501 1497 1492 1487 1482 1476 1471 1466 1461 1457 1455 1452 1449 1446 1444 1442 1439 1437 1436 1435 1434 1433 1432 1429 1432 1432 1434 1434 1436 1439 1444 1454 1463 1466 1468 1473 1477